Location: Anglesey
(53.1800°N, 4.2200°W)
Time: 03:26:05
(UTC+01:00)

OTV 5 (USA 277) - Visible Passes

Search period start: 25 September 2017 00:00
Search period end: 05 October 2017 00:00
Orbit: 404 x 417 km, 43.0° (Epoch: 07 September)

Date Brightness Start Highest point End Pass type
(mag) Time Alt. Az. Time Alt. Az. Time Alt. Az.
25 Sep ? 04:56:38 12° SSE 04:56:38 12° SSE 04:57:27 10° SE visible
25 Sep ? 06:30:36 10° SW 06:32:11 13° S 06:33:45 10° SSE visible
26 Sep ? 05:40:47 13° SSW 05:41:20 14° S 05:43:08 10° SSE visible
27 Sep ? 04:52:12 11° SSE 04:52:12 11° SSE 04:52:22 10° SSE visible
28 Sep ? 05:36:28 11° S 05:36:28 11° S 05:37:10 10° S visible
